IBE06PW LEMD-LIPZ

Flight info

Callsign IBE06PW
Flight time 1h 50m
Altitude 36000
Route PINAR N870 DIBER UN870 SOSUR DCT STP Y15 USANO DCT KALMO DCT OGPUD DCT NIMUM DCT OTGIG
Aircraft A320/M-SDE3FGHIRWY/LB1

Departure

Time 2026-05-06 15:30
Airport Adolfo Suárez Madrid–Barajas Airport (LEMD)

Arrival

Time 2026-05-06 17:21
Airport Venice Marco Polo Airport (LIPZ)
Time Latitude Longitude Altitude Speed Heading
2026-05-06 14:40 40.49121 -3.58964 2050 ft 0 kts 271°
2026-05-06 15:16 40.49120 -3.58958 2022 ft 3 kts 271°
2026-05-06 15:16 40.49120 -3.58929 2031 ft 3 kts 270°
2026-05-06 15:16 40.49120 -3.58906 2028 ft 3 kts 253°
2026-05-06 15:17 40.49129 -3.58886 2031 ft 3 kts 205°
2026-05-06 15:17 40.49148 -3.58881 2028 ft 3 kts 179°
2026-05-06 15:17 40.49157 -3.58881 2033 ft 0 kts 179°
2026-05-06 15:21 40.49116 -3.58880 2027 ft 9 kts 179°
2026-05-06 15:21 40.49021 -3.58880 2022 ft 17 kts 180°
2026-05-06 15:21 40.48898 -3.58879 2022 ft 18 kts 179°
2026-05-06 15:21 40.48794 -3.58878 2022 ft 10 kts 179°
2026-05-06 15:22 40.48759 -3.58822 2025 ft 8 kts 94°
2026-05-06 15:22 40.48759 -3.58720 2022 ft 16 kts 89°
2026-05-06 15:22 40.48759 -3.58541 2017 ft 22 kts 90°
2026-05-06 15:22 40.48760 -3.58319 2012 ft 27 kts 90°
2026-05-06 15:23 40.48761 -3.58121 2005 ft 13 kts 90°
2026-05-06 15:23 40.48792 -3.58052 2003 ft 9 kts 13°
2026-05-06 15:23 40.48852 -3.58017 2002 ft 13 kts 66°
2026-05-06 15:23 40.48857 -3.57848 1996 ft 24 kts 89°
2026-05-06 15:24 40.48858 -3.57613 1990 ft 27 kts 89°
2026-05-06 15:24 40.48859 -3.57361 1986 ft 24 kts 89°
2026-05-06 15:24 40.48860 -3.57136 1982 ft 26 kts 90°
2026-05-06 15:24 40.48861 -3.56899 1977 ft 20 kts 89°
2026-05-06 15:25 40.48861 -3.56703 1974 ft 23 kts 90°
2026-05-06 15:25 40.48862 -3.56483 1968 ft 23 kts 89°
2026-05-06 15:25 40.48863 -3.56354 1965 ft 11 kts 90°
2026-05-06 15:25 40.48876 -3.56258 1964 ft 11 kts 45°
2026-05-06 15:26 40.48947 -3.56244 1962 ft 11 kts 360°
2026-05-06 15:26 40.49057 -3.56245 1962 ft 21 kts 360°
2026-05-06 15:26 40.49228 -3.56246 1962 ft 28 kts 360°
2026-05-06 15:26 40.49439 -3.56247 1961 ft 31 kts 360°
2026-05-06 15:27 40.49617 -3.56247 1961 ft 22 kts
2026-05-06 15:27 40.49768 -3.56249 1961 ft 24 kts
2026-05-06 15:27 40.49889 -3.56249 1961 ft 12 kts 359°
2026-05-06 15:27 40.49939 -3.56192 1960 ft 11 kts 87°
2026-05-06 15:28 40.49939 -3.56101 1958 ft 8 kts 88°
2026-05-06 15:28 40.49954 -3.56015 1961 ft 10 kts 66°
2026-05-06 15:28 40.50000 -3.55945 1959 ft 10 kts 37°
2026-05-06 15:28 40.50064 -3.55921 1960 ft 4 kts
2026-05-06 15:29 40.50065 -3.55921 1960 ft 0 kts
2026-05-06 15:29 40.50131 -3.55919 1960 ft 28 kts
2026-05-06 15:29 40.50580 -3.55923 1972 ft 97 kts 360°
2026-05-06 15:30 40.51453 -3.55931 1950 ft 152 kts 359°
2026-05-06 15:30 40.52650 -3.55934 2063 ft 184 kts
2026-05-06 15:30 40.53913 -3.55900 2776 ft 181 kts
2026-05-06 15:30 40.55136 -3.55515 3512 ft 181 kts 17°
2026-05-06 15:31 40.56359 -3.55025 4030 ft 192 kts 17°
2026-05-06 15:31 40.57710 -3.54487 4289 ft 214 kts 17°
2026-05-06 15:31 40.59180 -3.53841 4643 ft 230 kts 27°
2026-05-06 15:32 40.61370 -3.50465 5473 ft 268 kts 62°
2026-05-06 15:32 40.62257 -3.48298 6204 ft 275 kts 62°
2026-05-06 15:32 40.63164 -3.46063 7007 ft 279 kts 62°
2026-05-06 15:32 40.64084 -3.43799 7831 ft 282 kts 62°
2026-05-06 15:33 40.65015 -3.41516 8677 ft 284 kts 62°
2026-05-06 15:33 40.65955 -3.39213 9510 ft 287 kts 61°
2026-05-06 15:33 40.66906 -3.36885 10262 ft 292 kts 62°
2026-05-06 15:33 40.67904 -3.34443 10533 ft 314 kts 62°
2026-05-06 15:34 40.68980 -3.31816 10719 ft 338 kts 62°
2026-05-06 15:34 40.70123 -3.29022 11048 ft 353 kts 62°
2026-05-06 15:34 40.71298 -3.26147 11659 ft 359 kts 62°
2026-05-06 15:34 40.72487 -3.23231 12324 ft 363 kts 62°
2026-05-06 15:35 40.73688 -3.20280 13013 ft 367 kts 62°
2026-05-06 15:35 40.74901 -3.17295 13687 ft 371 kts 62°
2026-05-06 15:35 40.76127 -3.14281 14277 ft 375 kts 62°
2026-05-06 15:35 40.77368 -3.11231 14852 ft 379 kts 62°
2026-05-06 15:36 40.78622 -3.08146 15426 ft 383 kts 62°
2026-05-06 15:36 40.79888 -3.05029 15976 ft 387 kts 61°
2026-05-06 15:36 40.81166 -3.01878 16522 ft 392 kts 61°
2026-05-06 15:36 40.82458 -2.98688 17054 ft 396 kts 61°
2026-05-06 15:37 40.83762 -2.95464 17591 ft 400 kts 61°
2026-05-06 15:37 40.85078 -2.92200 18096 ft 405 kts 61°
2026-05-06 15:37 40.86407 -2.88901 18553 ft 409 kts 61°
2026-05-06 15:37 40.87747 -2.85571 19012 ft 412 kts 61°
2026-05-06 15:38 40.89101 -2.82213 19487 ft 415 kts 61°
2026-05-06 15:38 40.90463 -2.78832 19922 ft 419 kts 61°
2026-05-06 15:38 40.91836 -2.75416 20354 ft 423 kts 61°
2026-05-06 15:38 40.93221 -2.71966 20772 ft 426 kts 61°
2026-05-06 15:39 40.94615 -2.68483 21186 ft 430 kts 61°
2026-05-06 15:39 40.95999 -2.65017 21580 ft 434 kts 60°
2026-05-06 15:39 40.97414 -2.61462 21964 ft 439 kts 61°
2026-05-06 15:39 40.98555 -2.57697 22343 ft 444 kts 71°
2026-05-06 15:40 40.99438 -2.53767 22740 ft 448 kts 74°
2026-05-06 15:40 41.00206 -2.49752 23128 ft 452 kts 76°
2026-05-06 15:40 41.00912 -2.45681 23503 ft 455 kts 77°
2026-05-06 15:40 41.01606 -2.41574 23817 ft 459 kts 77°
2026-05-06 15:41 41.02320 -2.37451 23922 ft 459 kts 76°
2026-05-06 15:41 41.03061 -2.33340 23949 ft 459 kts 75°
2026-05-06 15:41 41.03830 -2.29235 23947 ft 459 kts 75°
2026-05-06 15:41 41.04617 -2.25127 23948 ft 461 kts 75°
2026-05-06 15:42 41.05411 -2.21006 23952 ft 462 kts 75°
2026-05-06 15:42 41.06202 -2.16885 23950 ft 462 kts 75°
2026-05-06 15:42 41.06988 -2.12752 23950 ft 462 kts 75°
2026-05-06 15:42 41.07767 -2.08621 23955 ft 463 kts 75°
2026-05-06 15:43 41.08547 -2.04472 24274 ft 465 kts 75°
2026-05-06 15:43 41.09326 -2.00297 24627 ft 468 kts 75°
2026-05-06 15:43 41.10102 -1.96099 24972 ft 470 kts 76°
2026-05-06 15:43 41.10878 -1.91880 25310 ft 472 kts 76°
2026-05-06 15:44 41.11659 -1.87642 25609 ft 475 kts 76°
2026-05-06 15:44 41.12446 -1.83373 25942 ft 477 kts 75°
2026-05-06 15:44 41.13235 -1.79085 26269 ft 480 kts 76°
2026-05-06 15:44 41.14029 -1.74776 26577 ft 482 kts 75°
2026-05-06 15:45 41.14827 -1.70446 26877 ft 484 kts 76°
2026-05-06 15:45 41.15625 -1.66103 27181 ft 486 kts 76°
2026-05-06 15:45 41.16424 -1.61732 27465 ft 488 kts 76°
2026-05-06 15:45 41.17222 -1.57340 27742 ft 490 kts 76°
2026-05-06 15:46 41.18019 -1.52929 28031 ft 492 kts 76°
2026-05-06 15:46 41.18818 -1.48497 28253 ft 496 kts 76°
2026-05-06 15:46 41.19626 -1.44031 28507 ft 498 kts 76°
2026-05-06 15:46 41.20438 -1.39549 28765 ft 500 kts 76°
2026-05-06 15:47 41.21252 -1.35049 29066 ft 501 kts 76°
2026-05-06 15:47 41.22063 -1.30551 29467 ft 500 kts 76°
2026-05-06 15:47 41.22870 -1.26057 29847 ft 500 kts 76°
2026-05-06 15:47 41.23672 -1.21568 30198 ft 499 kts 76°
2026-05-06 15:48 41.24470 -1.17081 30524 ft 498 kts 76°
2026-05-06 15:48 41.25266 -1.12604 30829 ft 498 kts 77°
2026-05-06 15:48 41.26062 -1.08118 31094 ft 499 kts 77°
2026-05-06 15:48 41.26857 -1.03625 31370 ft 499 kts 77°
2026-05-06 15:49 41.27647 -0.99139 31683 ft 498 kts 77°
2026-05-06 15:49 41.28437 -0.94658 32003 ft 498 kts 77°
2026-05-06 15:49 41.29229 -0.90181 32310 ft 497 kts 77°
2026-05-06 15:49 41.30018 -0.85705 32624 ft 497 kts 77°
2026-05-06 15:50 41.30803 -0.81235 32938 ft 496 kts 77°
2026-05-06 15:50 41.31582 -0.76774 33243 ft 495 kts 77°
2026-05-06 15:50 41.32361 -0.72303 33497 ft 496 kts 78°
2026-05-06 15:50 41.33138 -0.67826 33751 ft 497 kts 78°
2026-05-06 15:51 41.33911 -0.63347 34027 ft 497 kts 78°
2026-05-06 15:51 41.34681 -0.58866 34307 ft 497 kts 78°
2026-05-06 15:51 41.35255 -0.54345 34558 ft 495 kts 86°
2026-05-06 15:51 41.35361 -0.49785 34802 ft 493 kts 92°
2026-05-06 15:52 41.35327 -0.45228 35034 ft 493 kts 92°
2026-05-06 15:52 41.35295 -0.40669 35258 ft 493 kts 92°
2026-05-06 15:52 41.35263 -0.36109 35469 ft 493 kts 92°
2026-05-06 15:52 41.35229 -0.31553 35682 ft 493 kts 92°
2026-05-06 15:53 41.35192 -0.26992 35870 ft 493 kts 92°
2026-05-06 15:53 41.35153 -0.22423 35931 ft 494 kts 92°
2026-05-06 15:53 41.35067 -0.13274 35931 ft 495 kts 92°
2026-05-06 15:54 41.34980 -0.04116 35931 ft 495 kts 92°
2026-05-06 15:54 41.34882 0.05048 35929 ft 496 kts 93°
2026-05-06 15:55 41.34773 0.14160 35918 ft 496 kts 93°
2026-05-06 15:55 41.34653 0.23339 35897 ft 497 kts 93°
2026-05-06 15:56 41.34528 0.32536 35901 ft 497 kts 93°
2026-05-06 15:56 41.34399 0.41742 35898 ft 498 kts 94°
2026-05-06 15:57 41.34267 0.50956 35896 ft 499 kts 94°
2026-05-06 15:57 41.34128 0.60187 35899 ft 499 kts 94°
2026-05-06 15:58 41.33971 0.69419 35898 ft 499 kts 94°
2026-05-06 15:58 41.33811 0.78661 35886 ft 500 kts 94°
2026-05-06 15:59 41.33639 0.87908 35887 ft 500 kts 94°
2026-05-06 15:59 41.33467 0.97174 35891 ft 501 kts 94°
2026-05-06 16:00 41.33286 1.06439 35902 ft 501 kts 94°
2026-05-06 16:00 41.33092 1.15711 35883 ft 501 kts 95°
2026-05-06 16:01 41.32927 1.23422 35896 ft 502 kts 95°
2026-05-06 16:01 41.32729 1.32703 35902 ft 502 kts 95°
2026-05-06 16:02 41.32517 1.41996 35909 ft 502 kts 95°
2026-05-06 16:02 41.32299 1.51282 35907 ft 502 kts 95°
2026-05-06 16:03 41.32070 1.60570 35902 ft 503 kts 95°
2026-05-06 16:03 41.31832 1.69864 35905 ft 503 kts 95°
2026-05-06 16:04 41.31596 1.79167 35909 ft 503 kts 95°
2026-05-06 16:04 41.31348 1.88473 35934 ft 503 kts 95°
2026-05-06 16:05 41.31083 1.97780 35929 ft 503 kts 96°
2026-05-06 16:05 41.31022 2.07095 35931 ft 507 kts 86°
2026-05-06 16:06 41.32667 2.16221 35933 ft 510 kts 68°
2026-05-06 16:06 41.35607 2.24803 35960 ft 510 kts 65°
2026-05-06 16:07 41.38576 2.33372 35934 ft 510 kts 65°
2026-05-06 16:07 41.41535 2.41947 35926 ft 510 kts 65°
2026-05-06 16:08 41.44492 2.50544 35917 ft 510 kts 65°
2026-05-06 16:08 41.47449 2.59142 35921 ft 510 kts 65°
2026-05-06 16:09 41.50405 2.67752 35893 ft 510 kts 66°
2026-05-06 16:09 41.53349 2.76375 35931 ft 511 kts 66°
2026-05-06 16:10 41.56284 2.85011 35935 ft 510 kts 66°
2026-05-06 16:10 41.59209 2.93637 35940 ft 510 kts 66°
2026-05-06 16:11 41.62129 3.02267 35938 ft 509 kts 66°
2026-05-06 16:11 41.65039 3.10899 35920 ft 510 kts 66°
2026-05-06 16:12 41.67929 3.19505 35915 ft 511 kts 66°
2026-05-06 16:12 41.70844 3.28182 35920 ft 512 kts 66°
2026-05-06 16:13 41.73755 3.36885 35953 ft 512 kts 66°
2026-05-06 16:13 41.76655 3.45602 35946 ft 512 kts 66°
2026-05-06 16:14 41.79546 3.54325 35952 ft 512 kts 66°
2026-05-06 16:14 41.82435 3.63058 35948 ft 512 kts 67°
2026-05-06 16:15 41.85317 3.71794 35948 ft 512 kts 67°
2026-05-06 16:15 41.88196 3.80543 35937 ft 512 kts 67°
2026-05-06 16:16 41.91070 3.89290 35925 ft 512 kts 67°
2026-05-06 16:16 41.93932 3.98051 35966 ft 512 kts 68°
2026-05-06 16:17 41.96782 4.06810 35961 ft 512 kts 68°
2026-05-06 16:17 41.99627 4.15576 35962 ft 511 kts 68°
2026-05-06 16:18 42.02455 4.24345 35937 ft 511 kts 68°
2026-05-06 16:18 42.05281 4.33133 35939 ft 512 kts 68°
2026-05-06 16:19 42.08737 4.41493 35941 ft 513 kts 52°
2026-05-06 16:19 42.13679 4.48341 35971 ft 510 kts 39°
2026-05-06 16:20 42.18985 4.54700 35951 ft 510 kts 40°
2026-05-06 16:20 42.24273 4.61092 35921 ft 511 kts 40°
2026-05-06 16:21 42.29562 4.67514 35930 ft 511 kts 40°
2026-05-06 16:21 42.34859 4.73933 35942 ft 512 kts 40°
2026-05-06 16:22 42.40164 4.80357 35944 ft 512 kts 40°
2026-05-06 16:22 42.45456 4.86795 35946 ft 512 kts 40°
2026-05-06 16:23 42.50743 4.93259 35939 ft 512 kts 40°
2026-05-06 16:23 42.55789 5.00046 35934 ft 512 kts 51°
2026-05-06 16:24 42.59565 5.08151 35930 ft 512 kts 61°
2026-05-06 16:24 42.63092 5.16548 35928 ft 512 kts 61°
2026-05-06 16:25 42.66629 5.24954 35925 ft 512 kts 61°
2026-05-06 16:25 42.70155 5.33370 35901 ft 513 kts 61°
2026-05-06 16:26 42.73675 5.41807 35910 ft 513 kts 61°
2026-05-06 16:26 42.77185 5.50263 35913 ft 514 kts 62°
2026-05-06 16:27 42.80692 5.58740 35918 ft 514 kts 62°
2026-05-06 16:27 42.84197 5.67222 35916 ft 514 kts 62°
2026-05-06 16:28 42.87703 5.75714 35910 ft 514 kts 62°
2026-05-06 16:28 42.91198 5.84223 35920 ft 514 kts 62°
2026-05-06 16:29 42.94684 5.92735 35921 ft 514 kts 62°
2026-05-06 16:29 42.98165 6.01250 35921 ft 514 kts 62°
2026-05-06 16:30 43.01051 6.08335 35921 ft 514 kts 62°
2026-05-06 16:30 43.05100 6.18318 35897 ft 514 kts 62°
2026-05-06 16:31 43.08566 6.26870 35921 ft 514 kts 62°
2026-05-06 16:31 43.12020 6.35430 35915 ft 514 kts 62°
2026-05-06 16:32 43.15471 6.44004 35907 ft 514 kts 62°
2026-05-06 16:32 43.18913 6.52582 35871 ft 514 kts 63°
2026-05-06 16:33 43.22451 6.61092 35870 ft 514 kts 56°
2026-05-06 16:34 43.28749 6.73024 35869 ft 515 kts 54°
2026-05-06 16:34 43.32923 6.80930 35851 ft 515 kts 54°
2026-05-06 16:35 43.37116 6.88901 35814 ft 515 kts 54°
2026-05-06 16:35 43.41302 6.96882 35821 ft 515 kts 54°
2026-05-06 16:36 43.45485 7.04872 35847 ft 515 kts 55°
2026-05-06 16:36 43.49671 7.12893 35864 ft 515 kts 55°
2026-05-06 16:37 43.53842 7.20918 35854 ft 515 kts 55°
2026-05-06 16:37 43.58007 7.28954 35845 ft 515 kts 55°
2026-05-06 16:38 43.62080 7.37085 35853 ft 514 kts 62°
2026-05-06 16:38 43.65134 7.45969 35844 ft 512 kts 68°
2026-05-06 16:39 43.68061 7.54929 35832 ft 512 kts 68°
2026-05-06 16:39 43.70997 7.63896 35816 ft 512 kts 68°
2026-05-06 16:40 43.73920 7.72863 35825 ft 512 kts 68°
2026-05-06 16:40 43.76825 7.81841 35835 ft 511 kts 68°
2026-05-06 16:41 43.79709 7.90841 35841 ft 511 kts 68°
2026-05-06 16:41 43.82583 7.99828 35823 ft 511 kts 69°
2026-05-06 16:42 43.85460 8.08827 35827 ft 511 kts 69°
2026-05-06 16:42 43.88337 8.17830 35827 ft 511 kts 69°
2026-05-06 16:43 43.91210 8.26847 35830 ft 511 kts 69°
2026-05-06 16:43 43.94069 8.35875 35826 ft 511 kts 69°
2026-05-06 16:44 43.96911 8.44925 35812 ft 512 kts 69°
2026-05-06 16:44 43.99763 8.53998 35824 ft 513 kts 69°
2026-05-06 16:45 44.02608 8.63083 35824 ft 513 kts 69°
2026-05-06 16:45 44.05440 8.72192 35803 ft 513 kts 69°
2026-05-06 16:46 44.08278 8.81303 35849 ft 513 kts 69°
2026-05-06 16:46 44.10629 8.88874 35858 ft 513 kts 69°
2026-05-06 16:47 44.13448 8.97991 35871 ft 512 kts 69°
2026-05-06 16:47 44.16254 9.07106 35872 ft 512 kts 69°
2026-05-06 16:48 44.19049 9.16218 35862 ft 511 kts 69°
2026-05-06 16:48 44.21836 9.25323 35889 ft 510 kts 69°
2026-05-06 16:49 44.24611 9.34419 35903 ft 510 kts 70°
2026-05-06 16:49 44.27379 9.43520 35908 ft 509 kts 70°
2026-05-06 16:50 44.30127 9.52616 35867 ft 509 kts 70°
2026-05-06 16:50 44.32699 9.61790 35878 ft 505 kts 77°
2026-05-06 16:51 44.34697 9.71188 35886 ft 505 kts 77°
2026-05-06 16:51 44.36686 9.80585 35879 ft 505 kts 77°
2026-05-06 16:52 44.38677 9.89988 35862 ft 504 kts 77°
2026-05-06 16:52 44.40662 9.99391 35866 ft 504 kts 78°
2026-05-06 16:53 44.42633 10.08804 35856 ft 504 kts 77°
2026-05-06 16:53 44.44590 10.18232 35848 ft 505 kts 78°
2026-05-06 16:53 44.45569 10.22961 35609 ft 506 kts 78°
2026-05-06 16:54 44.46548 10.27698 35358 ft 508 kts 78°
2026-05-06 16:54 44.47532 10.32454 35109 ft 509 kts 78°
2026-05-06 16:54 44.48506 10.37148 34865 ft 509 kts 78°
2026-05-06 16:54 44.49493 10.41910 34630 ft 509 kts 78°
2026-05-06 16:55 44.50489 10.46739 34380 ft 510 kts 78°
2026-05-06 16:55 44.51456 10.51452 34160 ft 511 kts 79°
2026-05-06 16:55 44.52436 10.56246 33924 ft 512 kts 79°
2026-05-06 16:55 44.53414 10.61046 33614 ft 512 kts 79°
2026-05-06 16:56 44.54402 10.65906 33329 ft 511 kts 79°
2026-05-06 16:56 44.55378 10.70699 33063 ft 511 kts 78°
2026-05-06 16:56 44.56354 10.75492 32769 ft 512 kts 79°
2026-05-06 16:56 44.57332 10.80315 31594 ft 519 kts 79°
2026-05-06 16:57 44.58306 10.85171 30462 ft 527 kts 78°
2026-05-06 16:57 44.59302 10.90152 29141 ft 535 kts 78°
2026-05-06 16:57 44.60302 10.95172 28247 ft 532 kts 78°
2026-05-06 16:57 44.61300 11.00165 27177 ft 532 kts 78°
2026-05-06 16:58 44.62292 11.05133 26457 ft 525 kts 78°
2026-05-06 16:58 44.63254 11.10039 25722 ft 519 kts 78°
2026-05-06 16:58 44.64189 11.14904 24978 ft 513 kts 78°
2026-05-06 16:58 44.65094 11.19706 24256 ft 506 kts 78°
2026-05-06 16:59 44.65984 11.24465 23546 ft 500 kts 78°
2026-05-06 16:59 44.66860 11.29165 22776 ft 495 kts 78°
2026-05-06 16:59 44.67730 11.33810 22118 ft 488 kts 77°
2026-05-06 16:59 44.68592 11.38385 21471 ft 481 kts 77°
2026-05-06 17:00 44.69440 11.42900 20850 ft 475 kts 77°
2026-05-06 17:00 44.70271 11.47358 20269 ft 468 kts 77°
2026-05-06 17:00 44.71085 11.51761 19702 ft 462 kts 77°
2026-05-06 17:00 44.71889 11.56112 19148 ft 457 kts 77°
2026-05-06 17:01 44.72684 11.60401 18622 ft 451 kts 77°
2026-05-06 17:01 44.73474 11.64643 18090 ft 446 kts 77°
2026-05-06 17:01 44.74251 11.68831 17543 ft 439 kts 77°
2026-05-06 17:01 44.75013 11.72959 17030 ft 433 kts 77°
2026-05-06 17:02 44.75766 11.77034 16518 ft 427 kts 78°
2026-05-06 17:02 44.76510 11.81055 15994 ft 423 kts 77°
2026-05-06 17:02 44.77513 11.84925 15458 ft 421 kts 66°
2026-05-06 17:02 44.79014 11.88450 14914 ft 420 kts 54°
2026-05-06 17:03 44.80957 11.91494 14357 ft 417 kts 42°
2026-05-06 17:03 44.83187 11.93977 13785 ft 401 kts 36°
2026-05-06 17:03 44.85377 11.96281 13200 ft 385 kts 36°
2026-05-06 17:03 44.87453 11.98477 12658 ft 371 kts 37°
2026-05-06 17:04 44.89479 12.00628 12129 ft 358 kts 37°
2026-05-06 17:04 44.91448 12.02720 11594 ft 351 kts 37°
2026-05-06 17:04 44.93383 12.04784 11305 ft 348 kts 37°
2026-05-06 17:04 44.95277 12.06808 11213 ft 331 kts 37°
2026-05-06 17:05 44.97081 12.08681 11071 ft 316 kts 31°
2026-05-06 17:05 44.99015 12.10064 10871 ft 310 kts 18°
2026-05-06 17:05 45.01081 12.10846 10671 ft 305 kts
2026-05-06 17:05 45.03181 12.11029 10483 ft 300 kts 353°
2026-05-06 17:06 45.05219 12.10604 10286 ft 293 kts 339°
2026-05-06 17:06 45.07068 12.09575 10094 ft 278 kts 326°
2026-05-06 17:06 45.08639 12.08060 9903 ft 270 kts 313°
2026-05-06 17:06 45.09897 12.06152 9709 ft 261 kts 298°
2026-05-06 17:07 45.10598 12.03859 9493 ft 250 kts 275°
2026-05-06 17:07 45.10568 12.01458 9283 ft 242 kts 252°
2026-05-06 17:07 45.09825 11.99365 9071 ft 239 kts 229°
2026-05-06 17:07 45.08620 11.97748 8864 ft 239 kts 221°
2026-05-06 17:08 45.07373 11.96184 8661 ft 239 kts 221°
2026-05-06 17:08 45.06125 11.94617 8458 ft 240 kts 222°
2026-05-06 17:08 45.04875 11.93047 8258 ft 239 kts 222°
2026-05-06 17:08 45.03651 11.91512 8054 ft 232 kts 222°
2026-05-06 17:09 45.02452 11.90008 7851 ft 229 kts 222°
2026-05-06 17:09 45.01329 11.88423 7644 ft 228 kts 237°
2026-05-06 17:09 45.00905 11.86303 7445 ft 230 kts 271°
2026-05-06 17:09 45.01476 11.84193 7249 ft 238 kts 304°
2026-05-06 17:10 45.02573 11.82410 7058 ft 241 kts 308°
2026-05-06 17:10 45.03715 11.80677 6861 ft 242 kts 315°
2026-05-06 17:10 45.05244 11.79670 6659 ft 250 kts 350°
2026-05-06 17:10 45.06957 11.80085 6456 ft 257 kts 27°
2026-05-06 17:11 45.08369 11.81638 6275 ft 259 kts 40°
2026-05-06 17:11 45.09715 11.83328 6072 ft 258 kts 41°
2026-05-06 17:11 45.11051 11.85021 5876 ft 257 kts 41°
2026-05-06 17:11 45.12380 11.86706 5662 ft 256 kts 41°
2026-05-06 17:12 45.13701 11.88381 5463 ft 254 kts 41°
2026-05-06 17:12 45.15016 11.90045 5262 ft 253 kts 41°
2026-05-06 17:12 45.16323 11.91697 5054 ft 251 kts 42°
2026-05-06 17:12 45.17624 11.93335 4864 ft 250 kts 42°
2026-05-06 17:13 45.18920 11.94967 4660 ft 248 kts 41°
2026-05-06 17:13 45.20192 11.96567 4459 ft 247 kts 42°
2026-05-06 17:13 45.21490 11.98198 4248 ft 246 kts 42°
2026-05-06 17:13 45.22767 11.99807 4047 ft 245 kts 42°
2026-05-06 17:14 45.24022 12.01385 3845 ft 244 kts 42°
2026-05-06 17:14 45.25290 12.02976 3652 ft 244 kts 43°
2026-05-06 17:14 45.26553 12.04575 3447 ft 244 kts 43°
2026-05-06 17:14 45.27824 12.06190 3254 ft 245 kts 43°
2026-05-06 17:15 45.29090 12.07800 3096 ft 243 kts 43°
2026-05-06 17:15 45.30325 12.09370 2988 ft 234 kts 43°
2026-05-06 17:15 45.31506 12.10873 2979 ft 222 kts 43°
2026-05-06 17:15 45.32638 12.12315 2980 ft 217 kts 43°
2026-05-06 17:16 45.33754 12.13736 2990 ft 214 kts 43°
2026-05-06 17:16 45.34856 12.15142 3018 ft 212 kts 43°
2026-05-06 17:16 45.35926 12.16506 2993 ft 198 kts 43°
2026-05-06 17:16 45.36915 12.17768 2987 ft 186 kts 43°
2026-05-06 17:17 45.37867 12.18983 2948 ft 183 kts 43°
2026-05-06 17:17 45.38809 12.20187 2777 ft 181 kts 43°
2026-05-06 17:17 45.39741 12.21378 2548 ft 180 kts 43°
2026-05-06 17:17 45.40671 12.22568 2327 ft 180 kts 43°
2026-05-06 17:18 45.41600 12.23756 2090 ft 179 kts 43°
2026-05-06 17:18 45.42525 12.24939 1854 ft 178 kts 44°
2026-05-06 17:18 45.43440 12.26110 1639 ft 172 kts 44°
2026-05-06 17:18 45.44294 12.27203 1391 ft 160 kts 44°
2026-05-06 17:19 45.45096 12.28231 1185 ft 152 kts 45°
2026-05-06 17:19 45.45867 12.29220 989 ft 147 kts 44°
2026-05-06 17:19 45.46624 12.30188 785 ft 145 kts 44°
2026-05-06 17:19 45.47360 12.31156 597 ft 142 kts 44°
2026-05-06 17:20 45.48095 12.32080 410 ft 140 kts 44°
2026-05-06 17:20 45.48816 12.33007 238 ft 139 kts 44°
2026-05-06 17:20 45.49536 12.33933 43 ft 139 kts 44°
2026-05-06 17:20 45.50183 12.34765 15 ft 95 kts 42°
2026-05-06 17:21 45.50457 12.35115 14 ft 26 kts 42°
2026-05-06 17:21 45.50604 12.35304 14 ft 24 kts 42°
2026-05-06 17:21 45.50726 12.35383 16 ft 17 kts 10°
2026-05-06 17:21 45.50803 12.35384 16 ft 6 kts 354°
2026-05-06 17:22 45.50811 12.35383 18 ft 0 kts 353°
2026-05-06 17:22 45.50812 12.35383 18 ft 1 kts 353°
2026-05-06 17:22 45.50868 12.35383 16 ft 10 kts
2026-05-06 17:22 45.50957 12.35360 18 ft 14 kts 316°
2026-05-06 17:23 45.50961 12.35251 19 ft 11 kts 257°
2026-05-06 17:23 45.50922 12.35162 16 ft 9 kts 223°
2026-05-06 17:23 45.50869 12.35094 16 ft 12 kts 222°
2026-05-06 17:23 45.50798 12.35000 16 ft 15 kts 224°
2026-05-06 17:24 45.50712 12.34896 17 ft 18 kts 217°
2026-05-06 17:24 45.50638 12.34799 16 ft 15 kts 225°
2026-05-06 17:24 45.50556 12.34691 16 ft 18 kts 222°
2026-05-06 17:24 45.50469 12.34579 16 ft 15 kts 221°
2026-05-06 17:25 45.50397 12.34487 16 ft 13 kts 222°
2026-05-06 17:25 45.50360 12.34397 16 ft 9 kts 272°
2026-05-06 17:25 45.50396 12.34350 16 ft 7 kts 349°
2026-05-06 17:25 45.50424 12.34328 16 ft 6 kts 297°
2026-05-06 17:26 45.50426 12.34260 16 ft 5 kts 270°
2026-05-06 17:26 45.50424 12.34217 16 ft 2 kts 266°
2026-05-06 17:26 45.50424 12.34215 16 ft 0 kts 266°